• In Hungary
  • List of Countries
  • For 7 days
  • Water Temperature
  • Satellite Maps
  • Weather Map
  • News
  • Weather Widgets
  • user-avatar
    Login

    Hourly Weather Syktyvkar

    Today, 24 September, Monday

    Time Temperature Precipitation Wind Pressure Humidity
    00:00 +15°C° 0 mm 4 mps 740 mmHg 86%
    01:00 +15°C° 0 mm 4 mps 740 mmHg 88%
    02:00 +14°C° 0 mm 3 mps 740 mmHg 89%
    03:00 +14°C° 0 mm 3 mps 740 mmHg 91%
    04:00 +14°C° 0.1 mm 3 mps 740 mmHg 92%
    05:00 +14°C° 0.1 mm 3 mps 740 mmHg 92%
    06:00 +14°C° 0.1 mm 3 mps 740 mmHg 93%
    07:00 +14°C° 0.4 mm 3 mps 740 mmHg 93%
    08:00 +13°C° 0.4 mm 3 mps 740 mmHg 92%
    09:00 +13°C° 0.4 mm 3 mps 740 mmHg 92%
    10:00 +12°C° 0.5 mm 3 mps 740 mmHg 91%
    11:00 +12°C° 0.5 mm 3 mps 740 mmHg 90%
    12:00 +11°C° 0.5 mm 3 mps 740 mmHg 89%
    13:00 +10°C° 1.4 mm 3 mps 740 mmHg 90%
    14:00 +9°C° 1.4 mm 3 mps 741 mmHg 92%
    15:00 +8°C° 1.4 mm 2 mps 741 mmHg 93%
    16:00 +8°C° 0.3 mm 2 mps 741 mmHg 94%
    17:00 +7°C° 0.3 mm 2 mps 742 mmHg 96%
    18:00 +8°C° 0.3 mm 1 mps 742 mmHg 97%
    19:00 +7°C° 0 mm 2 mps 743 mmHg 97%
    20:00 +7°C° 0 mm 2 mps 743 mmHg 97%
    21:00 +7°C° 0 mm 2 mps 743 mmHg 97%
    22:00 +7°C° 0 mm 2 mps 743 mmHg 97%
    23:00 +7°C° 0 mm 2 mps 743 mmHg 97%

    Tomorrow, 25 September, Tuesday

    Time Temperature Precipitation Wind Pressure Humidity
    00:00 +7°C° 0 mm 2 mps 744 mmHg 97%
    01:00 +7°C° 0 mm 2 mps 744 mmHg 97%
    02:00 +7°C° 0 mm 2 mps 743 mmHg 97%
    03:00 +7°C° 0 mm 2 mps 743 mmHg 98%
    04:00 +7°C° 0 mm 2 mps 743 mmHg 97%
    05:00 +7°C° 0 mm 2 mps 743 mmHg 97%
    06:00 +7°C° 0 mm 2 mps 743 mmHg 97%
    07:00 +8°C° 0.1 mm 2 mps 743 mmHg 95%
    08:00 +8°C° 0.1 mm 2 mps 742 mmHg 93%
    09:00 +9°C° 0.1 mm 3 mps 742 mmHg 92%
    10:00 +9°C° 0.1 mm 3 mps 742 mmHg 89%
    11:00 +10°C° 0.1 mm 3 mps 742 mmHg 86%
    12:00 +10°C° 0.1 mm 3 mps 742 mmHg 83%
    13:00 +10°C° 0.2 mm 3 mps 741 mmHg 83%
    14:00 +9°C° 0.2 mm 3 mps 741 mmHg 83%
    15:00 +9°C° 0.2 mm 3 mps 740 mmHg 83%
    16:00 +9°C° 0.7 mm 3 mps 740 mmHg 86%
    17:00 +7°C° 0.7 mm 4 mps 740 mmHg 89%
    18:00 +7°C° 0.7 mm 4 mps 740 mmHg 92%
    19:00 +7°C° 0.8 mm 4 mps 739 mmHg 92%
    20:00 +7°C° 0.8 mm 4 mps 739 mmHg 92%
    21:00 +7°C° 0.8 mm 4 mps 739 mmHg 92%
    22:00 +8°C° 0.2 mm 3 mps 738 mmHg 93%
    23:00 +8°C° 0.2 mm 3 mps 738 mmHg 93%

    Day after tomorrow, 26 September, Wednesday

    Time Temperature Precipitation Wind Pressure Humidity
    00:00 +8°C° 0.2 mm 3 mps 737 mmHg 94%
    01:00 +8°C° 0.1 mm 3 mps 737 mmHg 94%
    02:00 +9°C° 0.1 mm 3 mps 737 mmHg 94%
    03:00 +9°C° 0.1 mm 3 mps 736 mmHg 95%
    04:00 +8°C° 0.1 mm 3 mps 736 mmHg 93%
    05:00 +8°C° 0.1 mm 3 mps 736 mmHg 92%
    06:00 +8°C° 0.1 mm 3 mps 736 mmHg 91%
    07:00 +8°C° 0.2 mm 3 mps 736 mmHg 89%
    08:00 +8°C° 0.2 mm 4 mps 736 mmHg 87%
    09:00 +8°C° 0.2 mm 5 mps 736 mmHg 85%
    10:00 +8°C° 0.3 mm 5 mps 737 mmHg 86%
    11:00 +7°C° 0.3 mm 5 mps 737 mmHg 86%
    12:00 +7°C° 0.3 mm 5 mps 738 mmHg 87%
    13:00 +6°C° 0.1 mm 5 mps 739 mmHg 86%
    14:00 +6°C° 0.1 mm 4 mps 740 mmHg 86%
    15:00 +5°C° 0.1 mm 4 mps 740 mmHg 85%
    16:00 +5°C° 0 mm 4 mps 741 mmHg 84%
    17:00 +4°C° 0 mm 4 mps 742 mmHg 84%
    18:00 +4°C° 0 mm 3 mps 743 mmHg 84%
    19:00 +3°C° 0 mm 3 mps 743 mmHg 85%
    20:00 +2°C° 0 mm 3 mps 744 mmHg 86%
    21:00 +2°C° 0 mm 2 mps 744 mmHg 87%
    22:00 +1°C° 0 mm 3 mps 744 mmHg 88%
    23:00 +1°C° 0 mm 3 mps 744 mmHg 89%

    27 September, Thursday

    Time Temperature Precipitation Wind Pressure Humidity
    00:00 +1°C° 0 mm 3 mps 744 mmHg 90%
    01:00 +1°C° 0 mm 3 mps 744 mmHg 90%
    02:00 0°C° 0 mm 4 mps 743 mmHg 90%
    03:00 0°C° 0 mm 4 mps 743 mmHg 90%
    04:00 0°C° 0 mm 4 mps 743 mmHg 88%
    05:00 0°C° 0 mm 4 mps 742 mmHg 87%
    06:00 0°C° 0 mm 5 mps 742 mmHg 85%
    07:00 +1°C° 0 mm 5 mps 742 mmHg 80%
    08:00 +2°C° 0 mm 5 mps 741 mmHg 75%
    09:00 +3°C° 0 mm 6 mps 741 mmHg 69%
    10:00 +3°C° 0 mm 6 mps 740 mmHg 66%
    11:00 +4°C° 0 mm 6 mps 740 mmHg 62%
    12:00 +5°C° 0 mm 6 mps 739 mmHg 59%
    13:00 +5°C° 0 mm 6 mps 739 mmHg 60%
    14:00 +5°C° 0 mm 6 mps 738 mmHg 61%
    15:00 +5°C° 0 mm 6 mps 738 mmHg 62%
    16:00 +5°C° 0.2 mm 5 mps 738 mmHg 67%
    17:00 +5°C° 0.2 mm 5 mps 738 mmHg 72%
    18:00 +3°C° 0.2 mm 5 mps 737 mmHg 77%
    19:00 +4°C° 0.3 mm 4 mps 737 mmHg 80%
    20:00 +4°C° 0.3 mm 4 mps 737 mmHg 83%
    21:00 +4°C° 0.3 mm 4 mps 736 mmHg 86%
    22:00 +3°C° 0.3 mm 4 mps 736 mmHg 88%
    23:00 +3°C° 0.3 mm 3 mps 735 mmHg 89%

    28 September, Friday

    Time Temperature Precipitation Wind Pressure Humidity
    00:00 +3°C° 0.3 mm 3 mps 735 mmHg 91%
    01:00 +3°C° 0.1 mm 3 mps 735 mmHg 92%
    02:00 +3°C° 0.1 mm 3 mps 735 mmHg 92%
    03:00 +3°C° 0.1 mm 3 mps 735 mmHg 92%
    04:00 +3°C° 0.1 mm 3 mps 735 mmHg 92%
    05:00 +3°C° 0.1 mm 3 mps 735 mmHg 92%
    06:00 +3°C° 0.1 mm 3 mps 735 mmHg 92%
    07:00 +3°C° 0.1 mm 3 mps 735 mmHg 90%
    08:00 +4°C° 0.1 mm 3 mps 735 mmHg 88%
    09:00 +4°C° 0.1 mm 4 mps 735 mmHg 86%
    10:00 +4°C° 0 mm 4 mps 735 mmHg 85%
    11:00 +4°C° 0 mm 4 mps 735 mmHg 85%
    12:00 +4°C° 0 mm 4 mps 735 mmHg 84%
    13:00 +4°C° 0 mm 4 mps 736 mmHg 84%
    14:00 +4°C° 0 mm 3 mps 736 mmHg 84%
    15:00 +4°C° 0 mm 3 mps 736 mmHg 84%
    16:00 +4°C° 0 mm 3 mps 735 mmHg 86%
    17:00 +5°C° 0 mm 2 mps 735 mmHg 88%
    18:00 +4°C° 0 mm 2 mps 735 mmHg 90%
    19:00 +5°C° 0 mm 1 mps 734 mmHg 92%
    20:00 +5°C° 0 mm 1 mps 734 mmHg 94%
    21:00 +4°C° 0 mm 1 mps 733 mmHg 96%
    22:00 +4°C° 0 mm 1 mps 733 mmHg 96%
    23:00 +4°C° 0 mm 1 mps 733 mmHg 96%

    29 September, Saturday

    Time Temperature Precipitation Wind Pressure Humidity
    00:00 +3°C° 0 mm 1 mps 733 mmHg 96%
    01:00 +3°C° 0 mm 1 mps 733 mmHg 96%
    02:00 +2°C° 0 mm 2 mps 734 mmHg 96%
    03:00 +1°C° 0 mm 2 mps 734 mmHg 96%
    04:00 +1°C° 0 mm 2 mps 735 mmHg 96%
    05:00 0°C° 0 mm 3 mps 735 mmHg 96%
    06:00 0°C° 0 mm 3 mps 736 mmHg 96%
    07:00 0°C° 0 mm 3 mps 737 mmHg 92%
    08:00 0°C° 0 mm 4 mps 737 mmHg 89%
    09:00 0°C° 0 mm 4 mps 738 mmHg 85%
    10:00 +1°C° 0.1 mm 4 mps 739 mmHg 84%
    11:00 +1°C° 0.1 mm 4 mps 739 mmHg 83%
    12:00 +3°C° 0.1 mm 4 mps 740 mmHg 82%
    13:00 +3°C° 0.1 mm 4 mps 741 mmHg 81%
    14:00 +4°C° 0.1 mm 4 mps 742 mmHg 81%
    15:00 +4°C° 0.1 mm 4 mps 742 mmHg 81%
    16:00 +4°C° 0.1 mm 4 mps 743 mmHg 83%
    17:00 +3°C° 0.1 mm 3 mps 743 mmHg 85%
    18:00 +3°C° 0.1 mm 3 mps 744 mmHg 86%
    19:00 +2°C° 0.1 mm 3 mps 744 mmHg 88%
    20:00 +2°C° 0.1 mm 3 mps 745 mmHg 89%
    21:00 +2°C° 0.1 mm 3 mps 745 mmHg 91%
    22:00 +1°C° 0.1 mm 3 mps 745 mmHg 92%
    23:00 +1°C° 0.1 mm 3 mps 746 mmHg 92%
    Show more